Time,TemperatureF,DewpointF,PressureIn,WindDirection,WindDirectionDegrees,WindSpeedMPH,WindSpeedGustMPH,Humidity,HourlyPrecipIn,Conditions,Clouds,dailyrainin,SoftwareType,DateUTC
2013-02-21 00:01:00,21.0,20.0,-100.00,WNW,295,10.0,12.0,96,0.04,,,-99.99,,2013-02-21 07:01:00,
2013-02-21 00:11:00,21.0,20.0,-100.00,WNW,295,11.0,14.0,96,0.04,,,-99.99,,2013-02-21 07:11:00,
2013-02-21 00:21:00,21.0,20.0,-100.00,WNW,295,11.0,14.0,96,0.04,,,-99.99,,2013-02-21 07:21:00,
2013-02-21 00:31:00,21.0,20.0,-100.00,WNW,295,11.0,14.0,96,0.04,,,-99.99,,2013-02-21 07:31:00,
2013-02-21 00:41:00,21.0,20.0,-100.00,WNW,285,11.0,13.0,95,0.04,,,-99.99,,2013-02-21 07:41:00,
2013-02-21 00:52:00,21.0,20.0,-100.00,WNW,285,10.0,13.0,95,0.04,,,-99.99,,2013-02-21 07:52:00,
2013-02-21 01:01:00,21.0,20.0,-100.00,WNW,285,10.0,13.0,95,0.04,,,-99.99,,2013-02-21 08:01:00,
2013-02-21 01:11:00,21.0,20.0,-100.00,West,272,12.0,15.0,96,0.04,,,-99.99,,2013-02-21 08:11:00,
2013-02-21 01:21:00,21.0,20.0,-100.00,WNW,296,9.0,11.0,96,0.04,,,-99.99,,2013-02-21 08:21:00,
2013-02-21 01:30:00,20.0,18.0,-100.00,WNW,301,12.0,15.0,93,0.04,,,-99.99,,2013-02-21 08:30:00,
2013-02-21 01:31:00,21.0,20.0,-100.00,WNW,296,9.0,11.0,96,0.04,,,-99.99,,2013-02-21 08:31:00,
2013-02-21 01:41:00,21.0,20.0,-100.00,NW,311,6.0,9.0,95,0.00,,,-99.99,,2013-02-21 08:41:00,
2013-02-21 01:52:00,20.0,18.0,-100.00,WNW,301,12.0,15.0,93,0.04,,,-99.99,,2013-02-21 08:52:00,
2013-02-21 02:01:00,20.0,18.0,-100.00,WNW,301,12.0,15.0,93,0.04,,,-99.99,,2013-02-21 09:01:00,
2013-02-21 02:11:00,20.0,18.0,-100.00,WNW,301,12.0,15.0,93,0.04,,,-99.99,,2013-02-21 09:11:00,
2013-02-21 02:22:00,20.0,18.0,-100.00,WNW,301,12.0,15.0,93,0.04,,,-99.99,,2013-02-21 09:22:00,
2013-02-21 05:22:00,16.0,14.0,-100.00,West,264,13.0,17.0,92,0.00,,,-99.99,,2013-02-21 12:22:00,
2013-02-21 05:32:00,16.0,14.0,-100.00,West,264,13.0,17.0,92,0.00,,,-99.99,,2013-02-21 12:32:00,
2013-02-21 05:43:00,15.0,13.0,-100.00,West,263,16.0,18.0,91,0.00,,,-99.99,,2013-02-21 12:43:00,
2013-02-21 05:52:00,15.0,13.0,-100.00,West,265,15.0,17.0,91,0.00,,,-99.99,,2013-02-21 12:52:00,
2013-02-21 06:01:00,15.0,13.0,-100.00,West,265,15.0,17.0,91,0.00,,,-99.99,,2013-02-21 13:01:00,
2013-02-21 06:12:00,15.0,12.0,-100.00,West,278,14.0,16.0,89,0.00,,,-99.99,,2013-02-21 13:12:00,
2013-02-21 06:22:00,17.0,13.0,-100.00,West,274,16.0,20.0,88,0.00,,,-99.99,,2013-02-21 13:22:00,
2013-02-21 06:31:00,17.0,13.0,-100.00,West,274,16.0,20.0,88,0.00,,,-99.99,,2013-02-21 13:31:00,
2013-02-21 06:41:00,14.0,12.0,-100.00,West,277,13.0,16.0,90,0.00,,,-99.99,,2013-02-21 13:41:00,
2013-02-21 06:52:00,13.0,11.0,-100.00,NNW,329,5.0,7.0,91,0.00,,,-99.99,,2013-02-21 13:52:00,
2013-02-21 07:02:00,13.0,11.0,-100.00,NNW,329,5.0,7.0,91,0.00,,,-99.99,,2013-02-21 14:02:00,
2013-02-21 07:11:00,13.0,11.0,-100.00,WNW,302,7.0,10.0,91,0.00,,,-99.99,,2013-02-21 14:11:00,
2013-02-21 07:21:00,13.0,11.0,-100.00,NNW,329,6.0,9.0,92,0.00,,,-99.99,,2013-02-21 14:21:00,
2013-02-21 07:31:00,13.0,11.0,-100.00,NNW,329,6.0,9.0,92,0.00,,,-99.99,,2013-02-21 14:31:00,
2013-02-21 07:41:00,13.0,11.0,-100.00,NW,320,6.0,8.0,92,0.00,,,-99.99,,2013-02-21 14:41:00,
2013-02-21 07:52:00,13.0,11.0,-100.00,NW,323,6.0,7.0,91,0.00,,,-99.99,,2013-02-21 14:52:00,
2013-02-21 08:01:00,13.0,11.0,-100.00,NW,323,6.0,7.0,91,0.00,,,-99.99,,2013-02-21 15:01:00,
2013-02-21 08:12:00,12.0,9.0,-100.00,NW,308,8.0,11.0,90,0.00,,,-99.99,,2013-02-21 15:12:00,
2013-02-21 08:21:00,13.0,11.0,-100.00,NNW,343,6.0,8.0,91,0.00,,,-99.99,,2013-02-21 15:21:00,
2013-02-21 08:31:00,13.0,11.0,-100.00,NNW,343,6.0,8.0,91,0.00,,,-99.99,,2013-02-21 15:31:00,
2013-02-21 08:41:00,15.0,12.0,-100.00,NNW,333,8.0,9.0,88,0.00,,,-99.99,,2013-02-21 15:41:00,
2013-02-21 08:52:00,15.0,11.0,-100.00,NNW,332,8.0,9.0,88,0.00,,,-99.99,,2013-02-21 15:52:00,
2013-02-21 09:01:00,15.0,11.0,-100.00,NNW,332,8.0,9.0,88,0.00,,,-99.99,,2013-02-21 16:01:00,
2013-02-21 09:12:00,15.0,12.0,-100.00,NNW,335,8.0,9.0,87,0.00,,,-99.99,,2013-02-21 16:12:00,
2013-02-21 09:21:00,16.0,12.0,-100.00,NNW,330,9.0,10.0,85,0.00,,,-99.99,,2013-02-21 16:21:00,
2013-02-21 09:31:00,16.0,12.0,-100.00,NNW,330,9.0,10.0,85,0.00,,,-99.99,,2013-02-21 16:31:00,
2013-02-21 09:42:00,16.0,12.0,-100.00,NNW,330,7.0,8.0,83,0.00,,,-99.99,,2013-02-21 16:42:00,
2013-02-21 09:52:00,17.0,12.0,-100.00,NW,323,7.0,10.0,83,0.00,,,-99.99,,2013-02-21 16:52:00,
2013-02-21 10:01:00,17.0,12.0,-100.00,NW,323,7.0,10.0,83,0.00,,,-99.99,,2013-02-21 17:01:00,
2013-02-21 10:11:00,17.0,13.0,-100.00,NNW,333,9.0,10.0,82,0.00,,,-99.99,,2013-02-21 17:11:00,
2013-02-21 10:21:00,17.0,13.0,-100.00,NNW,333,9.0,10.0,82,0.00,,,-99.99,,2013-02-21 17:21:00,
2013-02-21 10:32:00,17.0,13.0,-100.00,NNW,333,9.0,10.0,82,0.00,,,-99.99,,2013-02-21 17:32:00,
2013-02-21 10:42:00,17.0,12.0,-100.00,NW,312,10.0,11.0,80,0.00,,,-99.99,,2013-02-21 17:42:00,
2013-02-21 10:52:00,18.0,13.0,-100.00,WNW,282,9.0,11.0,80,0.00,,,-99.99,,2013-02-21 17:52:00,
2013-02-21 11:01:00,18.0,13.0,-100.00,WNW,282,9.0,11.0,80,0.00,,,-99.99,,2013-02-21 18:01:00,
2013-02-21 11:11:00,19.0,13.0,-100.00,West,278,10.0,12.0,78,0.00,,,-99.99,,2013-02-21 18:11:00,
2013-02-21 11:22:00,19.0,14.0,-100.00,West,264,11.0,14.0,78,0.00,,,-99.99,,2013-02-21 18:22:00,
2013-02-21 11:31:00,19.0,14.0,-100.00,West,264,11.0,14.0,78,0.00,,,-99.99,,2013-02-21 18:31:00,
2013-02-21 11:42:00,20.0,14.0,-100.00,WSW,257,12.0,14.0,77,0.00,,,-99.99,,2013-02-21 18:42:00,
2013-02-21 11:52:00,19.0,13.0,-100.00,WSW,247,14.0,16.0,78,0.00,,,-99.99,,2013-02-21 18:52:00,
2013-02-21 12:01:00,19.0,13.0,-100.00,WSW,247,14.0,16.0,78,0.00,,,-99.99,,2013-02-21 19:01:00,
2013-02-21 12:11:00,19.0,13.0,-100.00,WSW,246,16.0,18.0,78,0.00,,,-99.99,,2013-02-21 19:11:00,
2013-02-21 12:21:00,19.0,14.0,-100.00,WSW,243,15.0,17.0,78,0.00,,,-99.99,,2013-02-21 19:21:00,
2013-02-21 12:31:00,19.0,14.0,-100.00,WSW,243,15.0,17.0,78,0.00,,,-99.99,,2013-02-21 19:31:00,
2013-02-21 12:41:00,19.0,13.0,-100.00,WSW,251,11.0,13.0,77,0.00,,,-99.99,,2013-02-21 19:41:00,
2013-02-21 12:52:00,19.0,13.0,-100.00,WSW,250,9.0,11.0,76,0.00,,,-99.99,,2013-02-21 19:52:00,
2013-02-21 13:01:00,19.0,13.0,-100.00,WSW,250,9.0,11.0,76,0.00,,,-99.99,,2013-02-21 20:01:00,
2013-02-21 13:11:00,22.0,14.0,-100.00,West,263,8.0,10.0,73,0.00,,,-99.99,,2013-02-21 20:11:00,
2013-02-21 13:21:00,23.0,14.0,-100.00,West,267,8.0,9.0,69,0.00,,,-99.99,,2013-02-21 20:21:00,
2013-02-21 13:31:00,23.0,14.0,-100.00,West,267,8.0,9.0,69,0.00,,,-99.99,,2013-02-21 20:31:00,
2013-02-21 13:41:00,23.0,14.0,-100.00,West,267,8.0,9.0,69,0.00,,,-99.99,,2013-02-21 20:41:00,
2013-02-21 13:52:00,23.0,14.0,-100.00,West,267,8.0,9.0,69,0.00,,,-99.99,,2013-02-21 20:52:00,
2013-02-21 14:02:00,23.0,14.0,-100.00,West,267,8.0,9.0,69,0.00,,,-99.99,,2013-02-21 21:02:00,
2013-02-21 14:11:00,23.0,15.0,-100.00,WSW,253,10.0,12.0,70,0.00,,,-99.99,,2013-02-21 21:11:00,
2013-02-21 14:21:00,23.0,15.0,-100.00,WSW,256,8.0,9.0,71,0.00,,,-99.99,,2013-02-21 21:21:00,
2013-02-21 14:31:00,23.0,15.0,-100.00,WSW,256,8.0,9.0,71,0.00,,,-99.99,,2013-02-21 21:31:00,
2013-02-21 14:41:00,23.0,14.0,-100.00,WSW,253,8.0,9.0,67,0.00,,,-99.99,,2013-02-21 21:41:00,
2013-02-21 14:52:00,22.0,13.0,-100.00,WSW,256,8.0,9.0,67,0.00,,,-99.99,,2013-02-21 21:52:00,
2013-02-21 15:01:00,22.0,13.0,-100.00,WSW,256,8.0,9.0,67,0.00,,,-99.99,,2013-02-21 22:01:00,
2013-02-21 15:11:00,23.0,14.0,-100.00,WSW,254,9.0,11.0,67,0.00,,,-99.99,,2013-02-21 22:11:00,
2013-02-21 15:21:00,22.0,13.0,-100.00,WSW,246,15.0,16.0,67,0.00,,,-99.99,,2013-02-21 22:21:00,
2013-02-21 15:31:00,22.0,13.0,-100.00,WSW,246,15.0,16.0,67,0.00,,,-99.99,,2013-02-21 22:31:00,
2013-02-21 15:41:00,21.0,13.0,-100.00,WSW,243,18.0,19.0,72,0.00,,,-99.99,,2013-02-21 22:41:00,
2013-02-21 15:52:00,20.0,13.0,-100.00,WSW,239,16.0,17.0,71,0.00,,,-99.99,,2013-02-21 22:52:00,
2013-02-21 16:01:00,20.0,13.0,-100.00,WSW,239,16.0,17.0,71,0.00,,,-99.99,,2013-02-21 23:01:00,
2013-02-21 16:11:00,20.0,13.0,-100.00,WSW,239,16.0,17.0,71,0.00,,,-99.99,,2013-02-21 23:11:00,
2013-02-21 16:21:00,20.0,12.0,-100.00,WSW,246,16.0,18.0,71,0.00,,,-99.99,,2013-02-21 23:21:00,
2013-02-21 16:31:00,20.0,12.0,-100.00,WSW,246,16.0,18.0,71,0.00,,,-99.99,,2013-02-21 23:31:00,
2013-02-21 16:42:00,20.0,11.0,-100.00,WSW,244,14.0,15.0,68,0.00,,,-99.99,,2013-02-21 23:42:00,
2013-02-21 16:52:00,20.0,11.0,-100.00,WSW,244,14.0,15.0,68,0.00,,,-99.99,,2013-02-21 23:52:00,
2013-02-21 17:01:00,20.0,11.0,-100.00,WSW,244,14.0,15.0,68,0.00,,,-99.99,,2013-02-22 00:01:00,
2013-02-21 17:11:00,18.0,10.0,-100.00,WSW,250,9.0,10.0,70,0.00,,,-99.99,,2013-02-22 00:11:00,
2013-02-21 17:21:00,19.0,10.0,-100.00,WNW,289,2.0,4.0,68,0.00,,,-99.99,,2013-02-22 00:21:00,
2013-02-21 17:31:00,19.0,10.0,-100.00,WNW,289,2.0,4.0,68,0.00,,,-99.99,,2013-02-22 00:31:00,
2013-02-21 17:41:00,19.0,10.0,-100.00,ENE,75,3.0,4.0,67,0.00,,,-99.99,,2013-02-22 00:41:00,
2013-02-21 17:52:00,20.0,10.0,-100.00,NE,48,3.0,4.0,66,0.00,,,-99.99,,2013-02-22 00:52:00,
2013-02-21 18:01:00,20.0,10.0,-100.00,NE,48,3.0,4.0,66,0.00,,,-99.99,,2013-02-22 01:01:00,
2013-02-21 18:11:00,20.0,10.0,-100.00,NE,44,1.0,2.0,66,0.00,,,-99.99,,2013-02-22 01:11:00,
2013-02-21 18:21:00,18.0,10.0,-100.00,East,96,2.0,3.0,68,0.00,,,-99.99,,2013-02-22 01:21:00,
2013-02-21 18:32:00,18.0,10.0,-100.00,East,96,2.0,3.0,68,0.00,,,-99.99,,2013-02-22 01:32:00,
2013-02-21 18:42:00,17.0,11.0,-100.00,ESE,120,4.0,6.0,78,0.00,,,-99.99,,2013-02-22 01:42:00,
2013-02-21 18:52:00,15.0,13.0,-100.00,SE,140,11.0,13.0,90,0.00,,,-99.99,,2013-02-22 01:52:00,
2013-02-21 19:00:00,17.0,16.0,-100.00,ESE,110,10.0,12.0,95,0.00,,,-99.99,,2013-02-22 02:00:00,
2013-02-21 19:01:00,15.0,13.0,-100.00,SE,140,11.0,13.0,90,0.00,,,-99.99,,2013-02-22 02:01:00,
2013-02-21 19:11:00,17.0,15.0,-100.00,SE,128,12.0,15.0,94,0.00,,,-99.99,,2013-02-22 02:11:00,
2013-02-21 19:21:00,17.0,15.0,-100.00,SE,128,12.0,15.0,94,0.00,,,-99.99,,2013-02-22 02:21:00,
2013-02-21 19:31:00,17.0,16.0,-100.00,ESE,110,10.0,12.0,95,0.00,,,-99.99,,2013-02-22 02:31:00,
2013-02-21 19:42:00,17.0,16.0,-100.00,ESE,110,10.0,12.0,95,0.00,,,-99.99,,2013-02-22 02:42:00,
2013-02-21 19:52:00,17.0,16.0,-100.00,ESE,110,10.0,12.0,95,0.00,,,-99.99,,2013-02-22 02:52:00,
2013-02-21 20:11:00,18.0,17.0,-100.00,ESE,114,10.0,13.0,96,0.00,,,-99.99,,2013-02-22 03:11:00,
2013-02-21 20:21:00,18.0,17.0,-100.00,ESE,106,11.0,13.0,95,0.00,,,-99.99,,2013-02-22 03:21:00,
2013-02-21 20:31:00,18.0,17.0,-100.00,ESE,106,11.0,13.0,95,0.00,,,-99.99,,2013-02-22 03:31:00,
2013-02-21 20:41:00,18.0,17.0,-100.00,ESE,113,9.0,11.0,96,0.00,,,-99.99,,2013-02-22 03:41:00,
2013-02-21 20:52:00,18.0,17.0,-100.00,ESE,106,10.0,12.0,96,0.00,,,-99.99,,2013-02-22 03:52:00,
2013-02-21 21:01:00,18.0,17.0,-100.00,ESE,106,10.0,12.0,96,0.00,,,-99.99,,2013-02-22 04:01:00,
2013-02-21 21:11:00,18.0,17.0,-100.00,ESE,109,10.0,12.0,96,0.00,,,-99.99,,2013-02-22 04:11:00,
2013-02-21 21:21:00,18.0,17.0,-100.00,ESE,119,9.0,11.0,96,0.00,,,-99.99,,2013-02-22 04:21:00,
2013-02-21 21:31:00,18.0,17.0,-100.00,ESE,119,9.0,11.0,96,0.00,,,-99.99,,2013-02-22 04:31:00,
2013-02-21 21:42:00,18.0,17.0,-100.00,ESE,119,9.0,12.0,96,0.00,,,-99.99,,2013-02-22 04:42:00,
2013-02-21 21:51:00,18.0,17.0,-100.00,ESE,117,9.0,15.0,96,0.00,,,-99.99,,2013-02-22 04:51:00,
2013-02-21 22:01:00,18.0,17.0,-100.00,ESE,117,9.0,15.0,96,0.00,,,-99.99,,2013-02-22 05:01:00,
2013-02-21 22:11:00,18.0,17.0,-100.00,SE,131,11.0,14.0,96,0.00,,,-99.99,,2013-02-22 05:11:00,
2013-02-21 22:22:00,18.0,17.0,-100.00,SE,127,11.0,14.0,96,0.00,,,-99.99,,2013-02-22 05:22:00,
2013-02-21 22:32:00,18.0,17.0,-100.00,SE,127,11.0,14.0,96,0.00,,,-99.99,,2013-02-22 05:32:00,
2013-02-21 22:41:00,18.0,17.0,-100.00,SE,127,11.0,14.0,96,0.00,,,-99.99,,2013-02-22 05:41:00,
2013-02-21 22:52:00,18.0,17.0,-100.00,ESE,120,8.0,10.0,97,0.00,,,-99.99,,2013-02-22 05:52:00,
2013-02-21 23:01:00,18.0,17.0,-100.00,ESE,120,8.0,10.0,97,0.00,,,-99.99,,2013-02-22 06:01:00,
2013-02-21 23:11:00,18.0,17.0,-100.00,ESE,119,7.0,9.0,97,0.00,,,-99.99,,2013-02-22 06:11:00,
2013-02-21 23:21:00,18.0,17.0,-100.00,ESE,119,7.0,9.0,97,0.00,,,-99.99,,2013-02-22 06:21:00,
2013-02-21 23:31:00,18.0,17.0,-100.00,ESE,119,7.0,9.0,97,0.00,,,-99.99,,2013-02-22 06:31:00,
2013-02-21 23:42:00,18.0,17.0,-100.00,ESE,114,7.0,8.0,97,0.00,,,-99.99,,2013-02-22 06:42:00,
2013-02-21 23:52:00,18.0,17.0,-100.00,ESE,109,7.0,9.0,97,0.00,,,-99.99,,2013-02-22 06:52:00,